TimeEST,TemperatureF,Dew PointF,Humidity,Sea Level PressureIn,VisibilityMPH,Wind Direction,Wind SpeedMPH,Gust SpeedMPH,PrecipitationIn,Events,Conditions,WindDirDegrees,DateUTC
12:16 AM,31.5,31.6,100,30.11,4.0,East,5.8,-,N/A,,Mostly Cloudy,100,2012-12-20 05:16:00
12:35 AM,32.0,32.2,100,30.10,5.0,East,5.8,-,N/A,,Scattered Clouds,80,2012-12-20 05:35:00
12:56 AM,32.9,32.9,100,30.10,5.0,East,6.9,-,N/A,,Clear,100,2012-12-20 05:56:00
1:16 AM,33.8,34.0,100,30.09,5.0,East,6.9,-,N/A,,Scattered Clouds,100,2012-12-20 06:16:00
1:35 AM,34.2,34.3,100,30.07,5.0,East,8.1,-,N/A,,Overcast,100,2012-12-20 06:35:00
1:55 AM,34.7,34.9,100,30.06,5.0,East,10.4,-,N/A,,Overcast,100,2012-12-20 06:55:00
2:35 AM,34.7,34.9,100,30.05,7.0,East,8.1,-,N/A,,Scattered Clouds,100,2012-12-20 07:35:00
2:55 AM,34.9,35.1,100,30.04,5.0,ESE,9.2,-,N/A,,Clear,110,2012-12-20 07:55:00
3:16 AM,34.7,34.9,100,30.04,5.0,ESE,10.4,-,N/A,,Clear,110,2012-12-20 08:16:00
3:35 AM,34.7,34.9,100,30.04,5.0,ESE,8.1,-,N/A,,Scattered Clouds,110,2012-12-20 08:35:00
3:56 AM,34.7,34.9,100,30.02,5.0,ESE,9.2,-,N/A,,Scattered Clouds,110,2012-12-20 08:56:00
4:16 AM,34.9,35.1,100,30.00,5.0,East,9.2,-,N/A,,Clear,100,2012-12-20 09:16:00
4:35 AM,35.1,35.4,100,30.00,7.0,East,9.2,-,N/A,,Scattered Clouds,100,2012-12-20 09:35:00
4:55 AM,35.6,35.2,99,29.97,7.0,East,13.8,18.4,N/A,,Overcast,100,2012-12-20 09:55:00
5:16 AM,35.6,34.5,96,29.95,10.0,East,13.8,-,N/A,,Mostly Cloudy,90,2012-12-20 10:16:00
5:35 AM,35.2,34.3,97,29.95,10.0,East,13.8,-,N/A,,Scattered Clouds,90,2012-12-20 10:35:00
5:55 AM,35.2,34.2,96,29.92,10.0,East,12.7,-,N/A,,Mostly Cloudy,100,2012-12-20 10:55:00
6:16 AM,34.9,34.0,97,29.90,10.0,East,16.1,20.7,N/A,,Scattered Clouds,100,2012-12-20 11:16:00
6:35 AM,34.7,33.8,97,29.88,10.0,East,17.3,20.7,N/A,,Clear,90,2012-12-20 11:35:00
6:55 AM,35.1,32.9,92,29.86,10.0,East,17.3,23.0,N/A,,Clear,100,2012-12-20 11:55:00
7:16 AM,35.6,32.0,87,29.85,10.0,East,15.0,21.9,N/A,,Clear,100,2012-12-20 12:16:00
7:35 AM,35.8,31.8,86,29.85,10.0,ESE,11.5,-,N/A,,Clear,110,2012-12-20 12:35:00
7:56 AM,36.3,31.5,83,29.84,10.0,East,10.4,17.3,N/A,,Clear,100,2012-12-20 12:56:00
8:16 AM,36.5,31.6,83,29.82,10.0,East,13.8,-,N/A,,Clear,100,2012-12-20 13:16:00
8:35 AM,37.2,31.8,81,29.80,10.0,East,12.7,24.2,N/A,,Clear,100,2012-12-20 13:35:00
8:55 AM,37.6,31.8,80,29.79,10.0,ESE,12.7,18.4,N/A,,Clear,110,2012-12-20 13:55:00
9:16 AM,37.9,32.0,79,29.78,10.0,ESE,15.0,21.9,N/A,,Clear,110,2012-12-20 14:16:00
9:35 AM,37.9,31.8,79,29.75,10.0,East,16.1,24.2,N/A,,Clear,100,2012-12-20 14:35:00
9:55 AM,38.3,31.8,77,29.72,10.0,East,17.3,25.3,N/A,,Clear,100,2012-12-20 14:55:00
10:15 AM,38.7,32.0,77,29.71,10.0,ESE,13.8,24.2,N/A,,Clear,110,2012-12-20 15:15:00
10:36 AM,39.6,32.0,74,29.71,10.0,ESE,16.1,24.2,N/A,,Clear,110,2012-12-20 15:36:00
10:55 AM,40.1,32.0,73,29.71,10.0,ESE,12.7,18.4,N/A,,Clear,120,2012-12-20 15:55:00
11:15 AM,41.2,32.0,70,29.70,10.0,ESE,9.2,20.7,N/A,,Clear,110,2012-12-20 16:15:00
11:35 AM,41.9,32.0,68,29.69,10.0,ESE,11.5,18.4,N/A,,Clear,120,2012-12-20 16:35:00
11:56 AM,42.3,32.0,67,29.68,10.0,ESE,11.5,19.6,N/A,,Scattered Clouds,120,2012-12-20 16:56:00
12:16 PM,42.3,32.2,67,29.66,10.0,ESE,12.7,19.6,N/A,,Mostly Cloudy,120,2012-12-20 17:16:00
12:35 PM,42.6,32.0,66,29.67,10.0,SE,15.0,19.6,N/A,,Overcast,140,2012-12-20 17:35:00
12:55 PM,41.9,33.8,73,29.64,10.0,SE,10.4,17.3,N/A,Rain,Rain,130,2012-12-20 17:55:00
1:16 PM,42.6,34.2,72,29.61,10.0,ESE,12.7,19.6,N/A,,Overcast,120,2012-12-20 18:16:00
1:35 PM,42.3,35.1,76,29.60,7.0,SE,10.4,20.7,0.01,Rain,Light Rain,130,2012-12-20 18:35:00
1:56 PM,41.9,36.7,82,29.58,7.0,ESE,12.7,18.4,0.02,Rain,Rain,120,2012-12-20 18:56:00
2:16 PM,41.2,38.1,89,29.56,5.0,SE,10.4,16.1,0.04,Rain,Rain,130,2012-12-20 19:16:00
2:35 PM,41.0,40.6,99,29.55,5.0,SE,10.4,18.4,0.09,Rain,Rain,130,2012-12-20 19:35:00
2:56 PM,41.0,41.2,100,29.53,5.0,ESE,12.7,19.6,0.15,Rain,Rain,120,2012-12-20 19:56:00
3:16 PM,41.0,41.2,100,29.52,5.0,ESE,10.4,-,0.03,Rain,Rain,120,2012-12-20 20:16:00
3:35 PM,41.2,41.4,100,29.51,5.0,ESE,9.2,17.3,0.06,Rain,Rain,120,2012-12-20 20:35:00
3:55 PM,41.4,41.5,100,29.48,5.0,ESE,13.8,19.6,0.09,Rain,Light Rain,120,2012-12-20 20:55:00
4:16 PM,-9999,-9999,N/A,29.43,10.0,ESE,17.3,21.9,N/A,,Light Drizzle,110,2012-12-20 21:16:00
4:35 PM,41.9,41.9,100,29.42,10.0,ESE,12.7,21.9,N/A,,Overcast,120,2012-12-20 21:35:00
4:55 PM,41.9,42.1,100,29.40,10.0,ESE,13.8,19.6,N/A,,Overcast,110,2012-12-20 21:55:00
5:16 PM,42.3,42.4,100,29.40,10.0,SE,11.5,20.7,N/A,,Overcast,130,2012-12-20 22:16:00
5:35 PM,42.4,42.6,100,29.38,10.0,SE,12.7,19.6,N/A,,Overcast,130,2012-12-20 22:35:00
5:55 PM,42.8,43.0,100,29.37,10.0,SE,10.4,19.6,N/A,,Light Drizzle,140,2012-12-20 22:55:00
6:16 PM,43.7,43.2,98,29.36,10.0,SE,12.7,24.2,N/A,,Overcast,140,2012-12-20 23:16:00
6:35 PM,43.9,43.9,100,29.35,5.0,SE,11.5,20.7,N/A,Rain,Rain,140,2012-12-20 23:35:00
6:56 PM,43.9,44.1,100,29.34,10.0,SE,11.5,18.4,0.01,,Overcast,130,2012-12-20 23:56:00
7:16 PM,44.8,44.6,99,29.34,10.0,SE,10.4,18.4,N/A,,Overcast,140,2012-12-21 00:16:00
7:35 PM,45.3,44.6,97,29.33,10.0,SE,9.2,17.3,N/A,,Overcast,140,2012-12-21 00:35:00
7:55 PM,45.5,45.0,98,29.33,10.0,SSE,8.1,17.3,N/A,,Overcast,160,2012-12-21 00:55:00
8:16 PM,46.4,44.6,93,29.32,10.0,South,11.5,20.7,N/A,,Overcast,170,2012-12-21 01:16:00
8:35 PM,46.8,44.2,91,29.31,10.0,South,8.1,20.7,N/A,,Overcast,170,2012-12-21 01:35:00
8:55 PM,46.9,43.9,89,29.30,10.0,South,6.9,16.1,N/A,,Overcast,170,2012-12-21 01:55:00
9:15 PM,46.8,43.2,87,29.29,10.0,South,6.9,18.4,0.01,Rain,Light Rain,170,2012-12-21 02:15:00
9:35 PM,43.9,39.6,85,29.31,7.0,SW,11.5,25.3,0.03,Rain,Light Rain,230,2012-12-21 02:35:00
9:56 PM,42.4,39.4,89,29.32,7.0,WSW,19.6,29.9,0.05,Rain,Light Rain,240,2012-12-21 02:56:00
10:16 PM,41.2,33.6,74,29.32,10.0,WSW,9.2,26.5,N/A,,Light Drizzle,240,2012-12-21 03:16:00
10:35 PM,41.0,32.5,72,29.33,10.0,SW,17.3,25.3,N/A,,Overcast,230,2012-12-21 03:35:00
10:56 PM,39.9,29.1,65,29.33,10.0,SW,12.7,29.9,N/A,Rain,Light Rain,230,2012-12-21 03:56:00
11:16 PM,39.2,27.3,62,29.33,10.0,WSW,19.6,32.2,N/A,,Overcast,240,2012-12-21 04:16:00
11:35 PM,38.3,28.0,67,29.33,10.0,SW,11.5,23.0,N/A,,Overcast,230,2012-12-21 04:35:00
11:55 PM,37.9,28.4,69,29.34,10.0,WSW,15.0,31.1,N/A,,Overcast,240,2012-12-21 04:55:00